Sitka, AK

1:09 AM AKDT on May 30, 2017 (GMT -0800)
Sitka Rocky Gutierrez

Weather History for PASI - September, 2012

Change the Weather History Date:

Friday, September 7, 2012

  Actual Average Record
Temperature  
Mean Temperature 51 °F -  
Max Temperature 57 °F 59 °F 71 °F (1979)
Min Temperature 45 °F 48 °F 40 °F (1983)
Degree Days  
Heating Degree Days 14    
Growing Degree Days 1 (Base 50)    
Moisture  
Dew Point 51 °F    
Average Humidity 94    
Maximum Humidity 100    
Minimum Humidity 69    
Precipitation  
Precipitation 0.62 in - - ()
Sea Level Pressure  
Sea Level Pressure 30.13 in    
Wind  
Wind Speed 10 mph (SSE)    
Max Wind Speed 26 mph    
Max Gust Speed 36 mph    
Visibility 6 miles    
Events Rain    
Averages and records for this station are not official NWS values.
T = Trace of Precipitation, MM = Missing Value Source: NWS Daily Summary

Daily Weather History Graph

Daily Weather History Graph

Search for Another Location

Airport or City:

Trip Planner

Search our weather history database for the weather conditions in past years. The results will help you decide how hot, cold, wet, or windy it might be!

Date:

Astronomy

Sep. 07, 2012 Rise Set
Actual Time 6:17 AM AKDT 7:39 PM AKDT
Civil Twilight 5:37 AM AKDT 8:19 PM AKDT
Nautical Twilight 4:48 AM AKDT 9:08 PM AKDT
Astronomical Twilight 3:52 AM AKDT 10:03 PM AKDT
Moon 10:11 PM AKDT (9/7) 2:45 PM AKDT (9/7)
Length of Visible Light 14h 41m
Length of Day
13h 22m
Waning Gibbous, 57% of the Moon is Illuminated
Sep 7
Waning Gibbous
Sep 8
Last Quarter
Sep 15
New
Sep 22
First Quarter
Sep 29
Full

Hourly Weather History & Observations

Time (AKDT) Temp. Windchill Dew Point Humidity Pressure Visibility Wind Dir Wind Speed Gust Speed Precip Events Conditions
12:53 AM 46.0 °F 42.5 °F 45.0 °F 96% 30.38 in 10.0 mi East 6.9 mph - N/A   Clear
1:53 AM 46.0 °F - 45.0 °F 96% 30.38 in 10.0 mi Calm Calm - N/A   Clear
2:53 AM 45.0 °F 43.5 °F 45.0 °F 100% 30.37 in 10.0 mi East 3.5 mph - N/A   Clear
3:53 AM 48.0 °F - 46.0 °F 93% 30.35 in 10.0 mi ESE 4.6 mph - N/A   Mostly Cloudy
4:53 AM 46.0 °F 44.8 °F 45.0 °F 96% 30.33 in 10.0 mi East 3.5 mph - N/A   Overcast
5:53 AM 46.9 °F - 46.0 °F 97% 30.32 in 10.0 mi ESE 4.6 mph - N/A   Overcast
6:53 AM 48.0 °F - 46.0 °F 93% 30.31 in 10.0 mi ESE 3.5 mph - N/A   Overcast
7:53 AM 48.9 °F - 46.0 °F 90% 30.30 in 10.0 mi ESE 3.5 mph - N/A   Overcast
8:53 AM 50.0 °F - 46.0 °F 86% 30.27 in 10.0 mi ESE 5.8 mph - N/A   Overcast
9:53 AM 52.0 °F - 45.0 °F 77% 30.25 in 10.0 mi SE 6.9 mph - N/A   Overcast
10:53 AM 53.1 °F - 46.0 °F 77% 30.24 in 10.0 mi SSW 5.8 mph - N/A   Overcast
11:53 AM 55.0 °F - 45.0 °F 69% 30.20 in 10.0 mi SSE 9.2 mph - N/A   Overcast
12:53 PM 55.0 °F - 45.0 °F 69% 30.19 in 10.0 mi SSE 9.2 mph - 0.00 in Rain Light Rain
1:53 PM 54.0 °F - 46.9 °F 77% 30.16 in 10.0 mi ESE 19.6 mph 23.0 mph 0.00 in   Overcast
2:53 PM 54.0 °F - 48.9 °F 83% 30.14 in 10.0 mi SE 12.7 mph - 0.00 in   Overcast
3:53 PM 55.0 °F - 52.0 °F 89% 30.09 in 7.0 mi ESE 12.7 mph - 0.00 in Rain Light Rain
4:53 PM 57.0 °F - 54.0 °F 89% 30.06 in 5.0 mi SSE 15.0 mph 25.3 mph 0.01 in Rain Light Rain
5:28 PM 57.2 °F - 55.4 °F 94% 30.05 in 1.8 mi South 26.5 mph 35.7 mph 0.03 in Rain Light Rain
5:39 PM 57.2 °F - 55.4 °F 94% 30.04 in 3.0 mi SSE 23.0 mph 31.1 mph 0.04 in Rain Light Rain
5:53 PM 57.0 °F - 55.0 °F 93% 30.04 in 4.0 mi South 26.5 mph 33.4 mph 0.05 in Rain Light Rain
6:04 PM 57.2 °F - 55.4 °F 94% 30.04 in 2.0 mi South 24.2 mph 29.9 mph 0.01 in Rain Rain
6:11 PM 55.4 °F - 55.4 °F 100% 30.03 in 1.8 mi South 21.9 mph 34.5 mph 0.03 in Rain Rain
6:37 PM 55.4 °F - 55.4 °F 100% 30.04 in 2.0 mi South 19.6 mph 25.3 mph 0.08 in Rain Light Rain
6:53 PM 57.0 °F - 55.0 °F 93% 30.04 in 2.0 mi South 21.9 mph 27.6 mph 0.09 in Rain Light Rain
7:06 PM 55.4 °F - 55.4 °F 100% 30.04 in 1.8 mi South 18.4 mph 27.6 mph 0.03 in Rain Rain
7:15 PM 55.4 °F - 55.4 °F 100% 30.04 in 2.0 mi South 17.3 mph 24.2 mph 0.06 in Rain Rain
7:26 PM 55.4 °F - 55.4 °F 100% 30.04 in 4.0 mi South 18.4 mph 25.3 mph 0.07 in Rain Light Rain
7:45 PM 55.4 °F - 55.4 °F 100% 30.04 in 4.0 mi South 15.0 mph 21.9 mph 0.10 in Rain Light Rain
7:53 PM 55.9 °F - 55.9 °F 100% 30.04 in 3.0 mi South 17.3 mph - 0.11 in Rain Rain
8:08 PM 55.4 °F - 55.4 °F 100% 30.04 in 2.5 mi South 16.1 mph 21.9 mph N/A Rain Light Rain
8:16 PM 55.4 °F - 55.4 °F 100% 30.04 in 2.0 mi South 16.1 mph 23.0 mph 0.04 in Rain Rain
8:50 PM 55.4 °F - 55.4 °F 100% 30.04 in 3.0 mi South 12.7 mph - 0.16 in Rain Rain
8:53 PM 55.0 °F - 55.0 °F 100% 30.04 in 3.0 mi South 10.4 mph - 0.17 in Rain Rain
9:25 PM 55.4 °F - 55.4 °F 100% 30.05 in 2.5 mi WSW 13.8 mph 21.9 mph 0.07 in Rain Rain
9:34 PM 53.6 °F - 53.6 °F 100% 30.05 in 3.0 mi SW 11.5 mph - 0.09 in Rain Rain
9:53 PM 54.0 °F - 54.0 °F 100% 30.06 in 4.0 mi SW 9.2 mph - 0.12 in Rain Light Rain
10:10 PM 53.6 °F - 53.6 °F 100% 30.05 in 4.0 mi SSW 6.9 mph - 0.03 in Rain Light Rain
10:53 PM 54.0 °F - 54.0 °F 100% 30.05 in 6.0 mi South 4.6 mph - 0.06 in Rain Light Rain
11:14 PM 53.6 °F - 53.6 °F 100% 30.05 in 7.0 mi SSW 8.1 mph - 0.01 in Rain Light Rain
11:23 PM 53.6 °F - 53.6 °F 100% 30.04 in 9.0 mi South 6.9 mph - 0.01 in Rain Light Rain
11:53 PM 53.1 °F - 53.1 °F 100% 30.05 in 9.0 mi SW 6.9 mph - 0.01 in   Overcast